Regional Weather Roundup
Issued by NWS

Home | Current Version | Previous Version | Text Only | Print | Product List | Glossary On
Versions: 1 2 3 4 5 6 7 8 9 10 11 12 13 14 15 16 17 18 19 20 21 22 23 24 25 26 27
000
ASCA42 TJSJ 300310
RWRPR
PUERTO RICO/U.S. VIRGIN ISLANDS HOURLY WEATHER ROUNDUP
NATIONAL WEATHER SERVICE SAN JUAN PR
1100 PM AST SAT APR 29 2017

PRZ001>002-007>008-010-300400-
PUERTO RICO

CITY           SKY/WX    TMP DP  RH WIND       PRES   REMARKS
SAN JUAN LMM   PTCLDY    79  73  83 E9        30.08R
PONCE          PTCLDY    75  70  83 NE6       30.09
AGUADILLA      CLEAR     75  70  83 E9        30.09R
CEIBA          CLOUDY    75  73  94 E10       30.10R
$$

VIZ001>002-300400-
U.S. VIRGIN ISLANDS

CITY           SKY/WX    TMP DP  RH WIND       PRES   REMARKS
CHARLOTTE AMA  CLOUDY    75  72  88 E9        30.07S
CHRISTIANSTED  CLEAR     77  70  78 E12       30.07R
$$

HOURLY WEATHER ROUNDUP FOR THE NEWS MEDIA

CITY           SKY/WX    TMP DP  RH WIND       PRES   REMARKS
ORLANDO        CLEAR     76  70  82 E9        30.14S
NEW YORK       MOCLDY    75  57  53 N10       30.09R
NEWARK         MOCLDY    75  56  51 N14       30.09R
CHICAGO        HVY RAIN  44  42  93 NE24G35   29.98F FOG
HARTFORD       CLOUDY    68  49  50 W16       30.01R
BOSTON         PTCLDY    68  42  38 W15       30.01R
DALLAS         CLOUDY    58  50  75 NW20G26   29.76R
PHILADELPHIA   CLOUDY    73  62  68 CALM      30.08S
LOS ANGELES    CLEAR     64  44  48 W15       30.00R
WASHINGTON DC  PTCLDY    77  69  76 S7        30.07S



USA.gov is the U.S. government's official web portal to all federal, state and local government web resources and services.